Miscellaneous Local Product
Issued by NWS North Platte, NE

Home | Current Version | Previous Version | Text Only | Print | Product List | Glossary On
Versions: 1 2 3 4 5 6 7 8 9 10 11 12 13 14 15 16 17 18 19 20 21 22 23 24 25 26 27 28 29 30 31 32 33 34 35 36 37 38 39 40 41 42 43 44 45 46 47 48 49 50
000
AXUS43 KLBF 231110
MISLBF


WESTERN AND NORTH CENTRAL NEBRASKA HOURLY WEATHER ROUNDUP
NATIONAL WEATHER SERVICE NORTH PLATTE NE
600 AM CDT TUE SEP 23 2014

***STATIONS NOT REPORTING VARIABLES SUCH AS SKY/WEATHER OR
PRESSURE ARE PROVIDED BY THE NEBRASKA DEPARTMENT OF
ROADS...RAWS...AND APRS NETWORKS...AND ARE NOT UNDER
NATIONAL WEATHER SERVICE QUALITY CONTROL***

...OBSERVATIONS IN AND NEAR THE EASTERN PANHANDLE OF NEBRASKA...

CITY           SKY/WX    TMP DP  RH WIND       PRES   REMARKS
PINE RIDGE     PTCLDY    55  51  86 SW5       29.92S
CHADRON        PTCLDY    54  50  86 SW5       29.92S
ALLIANCE       PTCLDY    46  45  96 SW3       29.97S
SIDNEY         PTCLDY    57  54  89 SW10      30.04S
WHITECLAY        N/A     52  48  87 SE9         N/A
RUSHVILLE        N/A     51  50  95 SW12        N/A
CRESCENT LAKE    N/A     55  54  96 CALM        N/A
LISCO            N/A     50  46  88 CALM        N/A
BIG SPRINGS      N/A     57  55  92 CALM        N/A
$$

...OBSERVATIONS IN NORTH CENTRAL NEBRASKA...

CITY           SKY/WX    TMP DP  RH WIND       PRES   REMARKS
VALENTINE      PTCLDY    55  53  93 S9        29.97F
THEDFORD       CLOUDY    56  55  96 SE7       30.01S
AINSWORTH      MOCLDY    56  54  93 S15G21    29.99F
O`NEILL        RAIN      57  56  96 S13       30.07S
ORD            LGT RAIN  55  54  96 SE8       30.07S
BROKEN BOW     CLOUDY    58  54  86 S12G23    30.06S
SPRINGVIEW       N/A     58  54  86 E6          N/A
ROSE             N/A     58  58  99 E14         N/A
NEWPORT          N/A     57  56  95 S13         N/A
COMSTOCK         N/A     59  59 100 S13         N/A
CHAMBERS         N/A     56  55  95 S7          N/A
$$

...OBSERVATIONS IN SOUTHWEST NEBRASKA AND FAR NORTHEAST COLORADO...

CITY           SKY/WX    TMP DP  RH WIND       PRES   REMARKS
WRAY           FAIR      59  59 100 SW7       30.05S
HOLYOKE        FAIR      61  57  88 SW10G16   30.03F
IMPERIAL       PTCLDY    58  54  86 S7        30.03S
OGALLALA       PTCLDY    54  53  99 S3        30.01S
NORTH PLATTE   PTCLDY    57  55  93 SE9       30.03R
MCCOOK         CLEAR     56  54  93 SE7       30.05F
LEXINGTON      CLOUDY    57  55  94 SE10      30.06F
PAXTON           N/A     56  54  92 CALM        N/A
SUTHERLAND       N/A     54  52  92 S5          N/A
BRADY            N/A     56  53  91 CALM        N/A
GOTHENBURG       N/A     57  52  83 SE7         N/A
CALLAWAY         N/A     56  55  96 S13         N/A
$$

...SOME WEATHER OBSERVATIONS FROM AROUND THE REGION...

CITY           SKY/WX    TMP DP  RH WIND       PRES   REMARKS
DENVER         MOCLDY    59  50  72 SW9       30.13S
LARAMIE        CLEAR     44  41  89 SW8       30.22R
CHEYENNE       PTCLDY    56  44  64 W15       30.15S
SCOTTSBLUFF    CLEAR     51  48  89 NW3       30.00S
RAPID CITY     MOCLDY    57  54  89 NW6       29.91S
PIERRE         MOCLDY    61  53  75 SE24G30   29.93F
WINNER         CLOUDY    60  52  74 SE15G28   29.97S
SIOUX FALLS    CLOUDY    59  52  77 S8        30.11S
OMAHA          CLOUDY    61  52  72 S10       30.17S
GRAND ISLAND   LGT RAIN  57  54  89 S5        30.12R
KANSAS CITY    MOCLDY    56  51  84 SE8       30.22R
WICHITA        MOCLDY    58  51  78 S5        30.20R
LIBERAL        CLEAR     64  52  63 S13       30.13R
GOODLAND       PTCLDY    56  55  97 SE6       30.07R
$$



USA.gov is the U.S. government's official web portal to all federal, state and local government web resources and services.